Oshkosh, WI

4:04 PM CDT on April 25, 2018 (GMT -0500)
Wittman Regional

Weather History for KOSH - January, 2013

Change the Weather History Date:

Tuesday, January 29, 2013

  Actual Average Record
Temperature  
Mean Temperature 42 °F -  
Max Temperature 48 °F 25 °F 48 °F (1968)
Min Temperature 35 °F 7 °F -24 °F (1951)
Degree Days  
Heating Degree Days 24    
Moisture  
Dew Point 38 °F    
Average Humidity 95    
Maximum Humidity 100    
Minimum Humidity 87    
Precipitation  
Precipitation 0.97 in - - ()
Sea Level Pressure  
Sea Level Pressure 29.57 in    
Wind  
Wind Speed 9 mph (SSW)    
Max Wind Speed 18 mph    
Max Gust Speed -    
Visibility 3 miles    
Events Fog , Rain , Thunderstorm    
Averages and records for this station are not official NWS values.
T = Trace of Precipitation, MM = Missing Value Source: NWS Daily Summary

Daily Weather History Graph

Daily Weather History Graph

Search for Another Location

Airport or City:

Astronomy

Jan. 29, 2013 Rise Set
Actual Time 7:14 AM CST 5:00 PM CST
Civil Twilight 6:43 AM CST 5:31 PM CST
Nautical Twilight 6:08 AM CST 6:06 PM CST
Astronomical Twilight 5:34 AM CST 6:40 PM CST
Moon 8:05 PM CST (1/29) 8:04 AM CST (1/29)
Length of Visible Light 10h 48m
Length of Day
9h 46m
Waning Gibbous, 93% of the Moon is Illuminated
Jan 29
Waning Gibbous
Feb 3
Last Quarter
Feb 10
New
Feb 17
First Quarter
Feb 25
Full

Hourly Weather History & Observations

Time (CST) Temp. Windchill Dew Point Humidity Pressure Visibility Wind Dir Wind Speed Gust Speed Precip Events Conditions
12:53 AM 35.1 °F 27.9 °F 32.0 °F 89% 29.78 in 2.5 mi ESE 9.2 mph - 0.06 in Rain Heavy Rain
1:01 AM 35.6 °F 28.0 °F 32.0 °F 87% 29.73 in 5.0 mi ESE 10.4 mph - 0.01 in Rain , Thunderstorm Light Rain
1:12 AM 35.6 °F 28.0 °F 32.0 °F 87% 29.73 in 2.0 mi SE 10.4 mph - 0.09 in Rain Heavy Rain
1:28 AM 35.6 °F 28.0 °F 32.0 °F 87% 29.71 in 4.0 mi ESE 10.4 mph - 0.14 in Rain Rain
1:51 AM 35.6 °F 27.5 °F 33.8 °F 93% 29.73 in 2.5 mi SSE 11.5 mph - 0.24 in Rain Heavy Rain
1:53 AM 35.1 °F 27.9 °F 33.1 °F 92% 29.77 in 2.5 mi SSE 9.2 mph - 0.26 in Rain Heavy Rain
2:38 AM 35.6 °F 32.8 °F 33.8 °F 93% 29.71 in 3.0 mi SE 3.5 mph - 0.13 in Rain Light Rain
2:49 AM 35.6 °F 32.8 °F 33.8 °F 93% 29.69 in 2.5 mi East 3.5 mph - 0.14 in Rain Light Rain
2:53 AM 35.1 °F 30.1 °F 33.1 °F 92% 29.71 in 2.5 mi ESE 5.8 mph - 0.14 in Rain Light Rain
3:09 AM 35.6 °F 29.2 °F 33.8 °F 93% 29.66 in 2.5 mi SE 8.1 mph - 0.00 in   Overcast
3:23 AM 35.6 °F 28.6 °F 33.8 °F 93% 29.65 in 3.0 mi SE 9.2 mph - 0.00 in   Overcast
3:53 AM 36.0 °F 32.1 °F 35.1 °F 97% 29.67 in 9.0 mi SSE 4.6 mph - 0.00 in   Overcast
4:53 AM 36.0 °F 31.1 °F 35.1 °F 97% 29.65 in 9.0 mi SSE 5.8 mph - 0.01 in Rain Light Rain
5:53 AM 37.9 °F 32.1 °F 37.0 °F 97% 29.59 in 7.0 mi SSE 8.1 mph - 0.00 in   Overcast
6:08 AM 37.4 °F 31.4 °F 37.4 °F 100% 29.56 in 5.0 mi SSE 8.1 mph - N/A   Overcast
6:32 AM 39.2 °F 35.0 °F 37.4 °F 93% 29.60 in 1.8 mi Variable 5.8 mph - 0.08 in Rain Heavy Rain
6:42 AM 39.2 °F 35.9 °F 37.4 °F 93% 29.57 in 2.0 mi SSE 4.6 mph - 0.12 in Rain Rain
6:53 AM 37.9 °F 34.4 °F 37.0 °F 97% 29.60 in 1.8 mi South 4.6 mph - 0.13 in Rain Light Rain
7:07 AM 37.4 °F - 35.6 °F 93% 29.56 in 0.5 mi Calm Calm - 0.05 in Fog , Rain Heavy Rain
7:28 AM 37.4 °F - 35.6 °F 93% 29.56 in 0.2 mi Calm Calm - 0.05 in Fog Fog
7:53 AM 39.0 °F 31.0 °F 37.9 °F 96% 29.58 in 0.2 mi South 13.8 mph - 0.05 in Fog Fog
8:16 AM 41.0 °F 32.2 °F 39.2 °F 93% 29.56 in 0.2 mi South 18.4 mph - 0.04 in Fog , Rain Rain
8:27 AM 39.2 °F 30.8 °F 39.2 °F 100% 29.55 in 0.2 mi South 15.0 mph - 0.04 in Fog , Rain Light Rain
8:53 AM 39.9 °F 32.1 °F 39.0 °F 97% 29.56 in 0.2 mi South 13.8 mph - 0.04 in Fog Fog
9:07 AM 39.2 °F 31.6 °F 39.2 °F 100% 29.53 in 0.2 mi South 12.7 mph - N/A Fog Fog
9:31 AM 44.6 °F 38.4 °F 42.8 °F 93% 29.52 in 0.8 mi SSW 12.7 mph - N/A   Overcast
9:41 AM 42.8 °F 35.8 °F 42.8 °F 100% 29.51 in 0.2 mi South 13.8 mph - N/A Fog Fog
9:53 AM 44.1 °F 37.4 °F 43.0 °F 96% 29.53 in 0.2 mi South 13.8 mph - N/A Fog Fog
10:53 AM 46.9 °F - 46.0 °F 97% 29.54 in 0.2 mi SSW 9.2 mph - N/A Fog Fog
11:45 AM 48.2 °F - 48.2 °F 100% 29.52 in 0.5 mi SSW 10.4 mph - N/A Fog Fog
11:53 AM 48.9 °F - 48.0 °F 97% 29.53 in 1.0 mi SSW 10.4 mph - N/A   Overcast
12:39 PM 48.2 °F - 46.4 °F 93% 29.50 in 2.5 mi SSW 8.1 mph - N/A   Overcast
12:48 PM 48.2 °F - 46.4 °F 93% 29.51 in 3.0 mi SSW 9.2 mph - N/A   Overcast
12:53 PM 48.0 °F - 46.9 °F 96% 29.53 in 3.0 mi SSW 10.4 mph - N/A   Overcast
1:02 PM 48.2 °F - 46.4 °F 93% 29.51 in 1.8 mi SW 5.8 mph - N/A   Overcast
1:49 PM 48.2 °F - 46.4 °F 93% 29.50 in 0.8 mi WSW 4.6 mph - N/A   Overcast
1:50 PM 48.0 °F - 46.9 °F 96% 29.52 in 0.8 mi WSW 5.8 mph - N/A   Overcast
2:10 PM 46.4 °F - 46.4 °F 100% 29.50 in 0.2 mi Calm Calm - N/A Fog Fog
2:53 PM 44.1 °F 39.5 °F 43.0 °F 96% 29.57 in 0.8 mi West 8.1 mph - 0.01 in Rain Light Rain
2:56 PM 44.6 °F 40.7 °F 42.8 °F 93% 29.54 in 2.5 mi West 6.9 mph - 0.00 in Rain Light Rain
3:03 PM 44.6 °F 40.7 °F 42.8 °F 93% 29.55 in 4.0 mi West 6.9 mph - 0.00 in Rain Light Rain
3:16 PM 42.8 °F 37.0 °F 42.8 °F 100% 29.52 in 2.5 mi NW 10.4 mph - 0.01 in Rain Rain
3:27 PM 42.8 °F 37.5 °F 41.0 °F 93% 29.51 in 4.0 mi WNW 9.2 mph - 0.02 in Rain Light Rain
3:53 PM 41.0 °F 34.7 °F 39.9 °F 96% 29.55 in 4.0 mi WNW 10.4 mph - 0.04 in Rain Light Rain
4:14 PM 39.2 °F 33.0 °F 39.2 °F 100% 29.50 in 5.0 mi NW 9.2 mph - 0.01 in Rain Light Rain
4:36 PM 39.2 °F 32.5 °F 37.4 °F 93% 29.51 in 5.0 mi NW 10.4 mph - 0.02 in Rain Light Rain
4:53 PM 39.0 °F 31.8 °F 37.0 °F 93% 29.54 in 4.0 mi NW 11.5 mph - 0.02 in Rain Light Rain
5:06 PM 37.4 °F 30.8 °F 37.4 °F 100% 29.51 in 6.0 mi NW 9.2 mph - 0.01 in Rain Light Rain
5:53 PM 37.9 °F 35.5 °F 36.0 °F 93% 29.55 in 6.0 mi NNW 3.5 mph - 0.02 in Rain Light Rain
6:01 PM 37.4 °F 32.8 °F 35.6 °F 93% 29.53 in 5.0 mi NNW 5.8 mph - 0.00 in Rain Light Rain
6:53 PM 37.0 °F 32.4 °F 35.1 °F 93% 29.55 in 5.0 mi NNW 5.8 mph - 0.01 in   Overcast
7:30 PM 35.6 °F 31.7 °F 35.6 °F 100% 29.52 in 3.0 mi NNW 4.6 mph - 0.03 in Rain Light Rain
7:53 PM 36.0 °F 31.1 °F 35.1 °F 97% 29.54 in 3.0 mi NW 5.8 mph - 0.04 in Rain Light Rain
8:53 PM 36.0 °F 30.3 °F 35.1 °F 97% 29.53 in 3.0 mi NNW 6.9 mph - 0.01 in Rain Light Rain
9:53 PM 36.0 °F 28.5 °F 34.0 °F 93% 29.52 in 4.0 mi North 10.4 mph - 0.06 in Rain Light Rain
10:03 PM 35.6 °F 27.5 °F 33.8 °F 93% 29.50 in 5.0 mi North 11.5 mph - 0.00 in Rain Light Rain
10:53 PM 36.0 °F 27.5 °F 33.1 °F 89% 29.53 in 5.0 mi North 12.7 mph - 0.04 in Rain Light Rain
11:37 PM 35.6 °F 27.1 °F 33.8 °F 93% 29.52 in 8.0 mi North 12.7 mph - 0.03 in Rain Light Rain
11:53 PM 35.1 °F 26.9 °F 32.0 °F 89% 29.53 in 8.0 mi North 11.5 mph - 0.03 in   Overcast